D2913 Weather Reports


Display with metric or nautical units.
time (UTC)temp
F
wind
direction
speed
MPH
gust
MPH
rain 1hr
in
rain 24hr
in
rain mn
in
humidity
%
barometer
mb
20260503210016 61 0 0.0 0.0 0.00 0.00 0.00 82 1013.4
20260503205517 61 0 0.0 0.0 0.00 0.00 0.00 82 1013.5
20260503205016 61 0 0.0 0.0 0.00 0.00 0.00 82 1013.4
20260503204517 62 0 0.0 0.0 0.00 0.00 0.00 82 1013.3
20260503203517 62 0 0.0 0.0 0.00 0.00 0.00 82 1013.2
20260503202516 62 0 0.0 0.0 0.00 0.00 0.00 81 1013.2
20260503202016 63 0 0.0 0.0 0.00 0.00 0.00 81 1013.2
20260503201016 63 0 0.0 0.0 0.00 0.00 0.00 81 1013.2
20260503200516 62 0 0.0 0.0 0.00 0.00 0.00 81 1013.1
20260503200017 62 0 0.0 0.0 0.00 0.00 0.00 81 1013.1
20260503195516 62 0 0.0 0.0 0.00 0.00 0.00 82 1013.0
20260503195017 62 0 0.0 0.0 0.00 0.00 0.00 82 1012.9
20260503194516 63 0 0.0 0.0 0.00 0.00 0.00 82 1013.0
20260503193516 63 0 0.0 0.0 0.00 0.00 0.00 82 1012.6
20260503193017 63 0 0.0 0.0 0.00 0.00 0.00 82 1012.5
20260503192516 63 0 0.0 0.0 0.00 0.00 0.00 82 1012.5
20260503192016 64 0 0.0 0.0 0.00 0.00 0.00 81 1012.6
20260503191517 64 0 0.0 0.0 0.00 0.00 0.00 81 1012.5
20260503191017 65 0 0.0 0.0 0.00 0.00 0.00 81 1012.7
20260503190516 66 0 0.0 0.0 0.00 0.00 0.00 79 1012.7
20260503185516 67 0 0.0 0.0 0.00 0.00 0.00 78 1012.9
20260503185016 67 0 0.0 0.0 0.00 0.00 0.00 77 1012.8
20260503184521 67 0 0.0 0.0 0.00 0.00 0.00 76 1012.8
20260503184017 67 0 0.0 0.0 0.00 0.00 0.00 76 1012.8
20260503183516 67 0 0.0 0.0 0.00 0.00 0.00 76 1012.8
20260503183017 67 0 0.0 0.0 0.00 0.00 0.00 76 1012.8
20260503182517 68 0 0.0 0.0 0.00 0.00 0.00 76 1012.9
20260503182016 68 0 0.0 0.0 0.00 0.00 0.00 75 1012.8
20260503181516 69 0 0.0 0.0 0.00 0.00 0.00 75 1012.9
20260503181016 69 0 0.0 0.0 0.00 0.00 0.00 74 1012.9
20260503180516 70 0 0.0 0.0 0.00 0.00 0.00 74 1012.9
20260503180017 70 0 0.0 0.0 0.00 0.00 0.00 73 1013.0
20260503175516 70 0 0.0 0.0 0.00 0.00 0.00 73 1013.0
20260503175016 71 0 0.0 0.0 0.00 0.00 0.00 73 1012.9
20260503174016 71 0 0.0 0.0 0.00 0.00 0.00 73 1013.0
20260503173016 72 0 0.0 0.0 0.00 0.00 0.00 72 1013.2
20260503172518 73 0 0.0 0.0 0.00 0.00 0.00 72 1013.4
20260503172017 73 0 0.0 0.0 0.00 0.00 0.00 71 1013.3
20260503171517 73 0 0.0 0.0 0.00 0.00 0.00 71 1013.4
20260503171017 74 0 0.0 0.0 0.00 0.00 0.00 70 1013.4
20260503170516 74 0 0.0 0.0 0.00 0.00 0.00 70 1013.2
20260503150517 74 0 0.0 0.0 0.00 0.00 0.00 70 1013.3
20260503131016 75 0 0.0 0.0 0.00 0.00 0.00 69 1014.3
20260503130516 75 0 0.0 0.0 0.00 0.00 0.00 70 1014.4
20260503110516 74 0 0.0 0.0 0.00 0.00 0.00 72 1015.3
20260503081516 67 0 0.0 0.0 0.00 0.00 0.00 79 1016.0
20260503081016 67 0 0.0 0.0 0.00 0.00 0.00 79 1015.9
20260503080516 66 0 0.0 0.0 0.00 0.00 0.00 79 1015.9
20260503072516 65 0 0.0 0.0 0.00 0.00 0.00 79 1015.6
20260503072017 65 0 0.0 0.0 0.00 0.00 0.00 79 1015.7
20260503071016 65 0 0.0 0.0 0.00 0.00 0.00 79 1015.7
20260503070517 65 0 0.0 0.0 0.00 0.00 0.00 79 1015.6
20260503055016 56 0 0.0 0.0 0.00 0.00 0.00 90 1014.6
20260503054517 56 0 0.0 0.0 0.00 0.00 0.00 90 1014.4
20260503054016 55 0 0.0 0.0 0.00 0.00 0.00 90 1014.4
20260503053517 55 0 0.0 0.0 0.00 0.00 0.00 90 1014.3
20260503053016 54 0 0.0 0.0 0.00 0.00 0.00 90 1014.2
20260503052516 53 0 0.0 0.0 0.00 0.00 0.00 90 1014.2
20260503052016 53 0 0.0 0.0 0.00 0.00 0.00 90 1014.1
20260503051516 52 0 0.0 0.0 0.00 0.00 0.00 90 1014.0
20260503051016 51 0 0.0 0.0 0.00 0.00 0.00 91 1013.9
20260503050516 51 0 0.0 0.0 0.00 0.00 0.00 91 1013.9
20260503050022 51 0 0.0 0.0 0.00 0.00 0.00 91 1013.9
20260503045516 51 0 0.0 0.0 0.00 0.00 0.00 91 1013.9
20260503045017 50 0 0.0 0.0 0.00 0.00 0.00 91 1013.9
20260503044516 50 0 0.0 0.0 0.00 0.00 0.00 91 1013.6
20260503043516 49 0 0.0 0.0 0.00 0.00 0.00 91 1013.6
20260503043017 49 0 0.0 0.0 0.00 0.00 0.00 91 1013.6
20260503042516 48 0 0.0 0.0 0.00 0.00 0.00 91 1013.6
20260503042016 49 0 0.0 0.0 0.00 0.00 0.00 91 1013.6
20260503041017 48 0 0.0 0.0 0.00 0.00 0.00 91 1013.6
20260503040537 48 0 0.0 0.0 0.00 0.00 0.00 91 1013.5
20260503040017 48 0 0.0 0.0 0.00 0.00 0.00 91 1013.6
20260503035516 48 0 0.0 0.0 0.00 0.00 0.00 91 1013.6
20260503035016 48 0 0.0 0.0 0.00 0.00 0.00 91 1013.6
20260503034517 48 0 0.0 0.0 0.00 0.00 0.00 91 1013.6
20260503034017 48 0 0.0 0.0 0.00 0.00 0.00 91 1013.5
20260503033517 49 0 0.0 0.0 0.00 0.00 0.00 91 1013.6
20260503033016 49 0 0.0 0.0 0.00 0.00 0.00 91 1013.7
20260503032517 49 0 0.0 0.0 0.00 0.00 0.00 91 1013.7
20260503032017 48 0 0.0 0.0 0.00 0.00 0.00 91 1013.9
20260503031516 48 0 0.0 0.0 0.00 0.00 0.00 91 1013.9
20260503031016 48 0 0.0 0.0 0.00 0.00 0.00 91 1013.9
20260503030517 48 0 0.0 0.0 0.00 0.00 0.00 91 1013.9
20260503025517 48 0 0.0 0.0 0.00 0.00 0.00 91 1013.6
20260503025017 48 0 0.0 0.0 0.00 0.00 0.00 91 1013.7
20260503024517 48 0 0.0 0.0 0.00 0.00 0.00 91 1013.7
20260503023017 48 0 0.0 0.0 0.00 0.00 0.00 91 1013.7
20260503022517 49 0 0.0 0.0 0.00 0.00 0.00 91 1013.9
20260503022016 49 0 0.0 0.0 0.00 0.00 0.00 90 1014.0
20260503021516 50 0 0.0 0.0 0.00 0.00 0.00 91 1014.1
20260503021016 50 0 0.0 0.0 0.00 0.00 0.00 91 1014.1
20260503020517 49 0 0.0 0.0 0.00 0.00 0.00 91 1013.9
20260503020017 49 0 0.0 0.0 0.00 0.00 0.00 91 1014.0
20260503015016 47 0 0.0 0.0 0.00 0.00 0.00 91 1013.6
20260503014516 47 0 0.0 0.0 0.00 0.00 0.00 90 1013.7
20260503014016 47 0 0.0 0.0 0.00 0.00 0.00 90 1013.7
20260503013516 48 0 0.0 0.0 0.00 0.00 0.00 90 1013.9
20260503013017 48 0 0.0 0.0 0.00 0.00 0.00 90 1013.9
20260503011517 48 0 0.0 0.0 0.00 0.00 0.00 90 1013.7
20260503011017 48 0 0.0 0.0 0.00 0.00 0.00 89 1014.1
20260503010516 49 0 0.0 0.0 0.00 0.00 0.00 89 1014.1
20260503010017 49 0 0.0 0.0 0.00 0.00 0.00 88 1014.2
20260503005517 50 0 0.0 0.0 0.00 0.00 0.00 88 1014.3
20260503005016 50 0 0.0 0.0 0.00 0.00 0.00 88 1014.3
20260503004516 50 0 0.0 0.0 0.00 0.00 0.00 88 1014.4
20260503004016 50 0 0.0 0.0 0.00 0.00 0.00 88 1014.3
20260503003516 50 0 0.0 0.0 0.00 0.00 0.00 88 1014.4
20260503002517 50 0 0.0 0.0 0.00 0.00 0.00 89 1014.3
20260503002016 50 0 0.0 0.0 0.00 0.00 0.00 88 1014.4
20260503001516 50 0 0.0 0.0 0.00 0.00 0.00 88 1014.5
20260503001016 50 0 0.0 0.0 0.00 0.00 0.00 88 1014.4
20260503000516 50 0 0.0 0.0 0.00 0.00 0.00 87 1014.4
20260503000016 51 0 0.0 0.0 0.00 0.00 0.00 86 1014.6
20260502235517 51 0 0.0 0.0 0.00 0.00 0.00 85 1014.8
20260502235016 52 0 0.0 0.0 0.00 0.00 0.00 85 1014.7
20260502234517 52 0 0.0 0.0 0.00 0.00 0.00 86 1014.9
20260502234033 52 0 0.0 0.0 0.00 0.00 0.00 85 1014.9
20260502233517 52 0 0.0 0.0 0.00 0.00 0.00 85 1014.9
20260502233016 52 0 0.0 0.0 0.00 0.00 0.00 85 1015.0
20260502232538 53 0 0.0 0.0 0.00 0.00 0.00 84 1015.0
20260502232017 54 0 0.0 0.0 0.00 0.00 0.00 84 1015.2
20260502231516 54 0 0.0 0.0 0.00 0.00 0.00 83 1015.3
20260502231016 54 0 0.0 0.0 0.00 0.00 0.00 83 1015.3
20260502230516 55 0 0.0 0.0 0.00 0.00 0.00 83 1015.4
20260502230017 55 0 0.0 0.0 0.00 0.00 0.00 82 1015.4
20260502225516 55 0 0.0 0.0 0.00 0.00 0.00 82 1015.7
20260502225017 56 0 0.0 0.0 0.00 0.00 0.00 82 1015.7
20260502224516 56 0 0.0 0.0 0.00 0.00 0.00 81 1015.8
20260502223016 56 0 0.0 0.0 0.00 0.00 0.00 82 1015.8
20260502222516 56 0 0.0 0.0 0.00 0.00 0.00 81 1015.9
20260502222016 57 0 0.0 0.0 0.00 0.00 0.00 81 1015.9
20260502221516 57 0 0.0 0.0 0.00 0.00 0.00 81 1016.0
20260502221017 57 0 0.0 0.0 0.00 0.00 0.00 81 1016.2
20260502220516 57 0 0.0 0.0 0.00 0.00 0.00 81 1016.0
20260502220017 56 0 0.0 0.0 0.00 0.00 0.00 81 1015.9
20260502215516 56 0 0.0 0.0 0.00 0.00 0.00 82 1015.9
20260502215017 56 0 0.0 0.0 0.00 0.00 0.00 82 1015.9
20260502214516 56 0 0.0 0.0 0.00 0.00 0.00 82 1016.0
20260502214016 56 0 0.0 0.0 0.00 0.00 0.00 82 1016.0
20260502212016 57 0 0.0 0.0 0.00 0.00 0.00 81 1016.1
20260502211516 58 0 0.0 0.0 0.00 0.00 0.00 81 1016.3
20260502211017 58 0 0.0 0.0 0.00 0.00 0.00 81 1016.4
20260502210516 58 0 0.0 0.0 0.00 0.00 0.00 81 1016.5